Location: Cheyres
(46.8153°N, 6.7877°E)
Time: 13:19:09
(UTC+00:00)

Cosmos 1937 Rocket - Pass Details

Date: 11 May 2021
Orbit: 745 x 781 km, 74.0° (Epoch: 19 June)

Event Time Altitude Azimuth Distance (km) Brightness Sun altitude
Exits shadow 22:09:35 59° 156° (SSE) 868 3.4 -22.6°
Maximum altitude 22:10:21 68° 108° (ESE) 808 3.4 -22.7°
Drops below altitude 10° 22:15:29 10° 27° (NNE) 2,286 6.5 -23.0°
Sets 22:17:52 0° 25° (NNE) 3,220 7.4 -23.1°
